Location: Trois-Rivi�res
(46.3500°N, 72.5500°W)
Time: 13:22:31
(UTC-04:00)

N. Korean satellite - Pass Details

Date: 12 October 2017
Orbit: 459 x 517 km, 97.2° (Epoch: 22 October)

Event Time Altitude Azimuth Distance (km) Brightness Sun altitude
Rises 18:36:51 0° 160° (SSE) 2,554 10.1 -5.6°
Reaches altitude 10° 18:38:56 10° 158° (SSE) 1,668 9.1 -6.0°
Maximum altitude 18:42:29 68° 76° (ENE) 522 6.5 -6.6°
Drops below altitude 10° 18:46:01 10° 353° (N) 1,651 9.3 -7.2°
Sets 18:48:04 0° 351° (N) 2,525 10.3 -7.6°
